Probability
0 0 0 0 0 0 0 0 0 0 0 0 0 0 0 0 0 0 0 0 0 0 0 0 0 0 0 0 0 0 0 0 0 0 0 0 0 0
0 0 0 0 0 0 0 0 0 0 0 0 0 0 0 0 0 0 0 0 0 0 0 0 0 0 0 0 0 0 0 0 0 0 0 0 0 0
0 0 0 0 0 0 0 0 0 0 0 0 0 0 0 0 0 0 0 0 0 0 0 0 0 0 0 0 0 0 0 0 0 0 0 0 0 0
0 0 0 0 0 0 0 0 0 0 0 0 0 0 0 0 0 0 0 0 0 0 0 0 0 0 0 0 0 0 0 0 0 0 0 0 0 0
0 0 0 0 0 0 0 0 0 0 0 0 0 0 0 0 0 0 0 0 0 0 0 0 0 0 0 0 0 0 0 0 0 0 0 0 0 0
0 0 0 0 0 0 0 0 0 0 0 0 0 0 0 0 0 0 0 0 0 0 0 0 0 0 0 0 0 0 0 0 0 0 0 0 0 0
0 0 0 0 0 0 0 0 0 0 0 0 0 0 0 0 0 0 0 0 0 0 0 0 0 0 0 0 0 0 0 0 0 0 0 0 0 0
0 0 0 0 0 0 0 0 0 0 0 0 0 0 0 0 0 0 0 0 0 0 0 0 0 0 0 0 0 0 0 0 0 0 0 0 0 0
0 0 0 0 0 0 0 0 0 0 0 0 0 0 0 0 0 0 0 0 0 0 0 0 0 0 0 0 0 0 0 0 0 0 0 0 0 0
0 0 0 0 0 0 0 0 0 0 0 0 0 0 0 0 0 0 0 0 0 0 0 0 0 0 0 0 0 0 0 0 0 0 0 0 0 0
0 0 0 0 0 0 0 0 0 0 0 0 0 0 0 0 0 0 0 0 0 0 0 0 0 0 0 0 0 0 0 0 0 0 0 0 0 0
0 0 0 0 0 0 0 0 0 0 0 0 0 0 0 0 0 0 0 0 0 0 0 0 0 0 0 0 0 0 0 0 0 0 0 0 0 0
0 0 0 0 0 0 0 0 0 0 0 0 0 0 0 0 0 0 0 0 0 0 0 0 0 0 0 0 0 0 0 0 0 0 0 0 0 0
0 0 0 0 0 0 0 0 0 0 0 0 0 0 0 0 0 0 0 0 0 0 0 0 0 0 0 0 0 0 0 0 0 0 0 0 0 0
0 0 0 0 0 0 0 0 0 0 0 0 0 0 0 0 0 0 0 0 0 0 0 0 0 0 0 0 0 0 0 0 0 0 0 0 0 0
0 0 0 0 0 0 0 0 0 0 0 0 0 0 0 0 0 0 0 0 0 0 0 0 0 0 0 0 0 0 0 0 0 0 0 0 0 0
0 0 0 0 0 0 0 0 0 0 0 0 0 0 0 0 0 0 0 0 0 0 0 0 0 0 0 0 0 0 0 0 0 0 0 0 0 0
0 0 0 0 0 0 0 0 0 0 0 0 0 0 0 0 0 0 0 0 0 0 0 0 0 0 0 0 0 0 0 0 0 0 0 0 0 0
0 0 0 0 0 0 0 0 0 0 0 0 0 0 0 0 0 0 0 0 0 0 0 0 0 0 0 0 0 0 0 0 0 0 0 0 0 0
0 0 0 0 0 0 0 0 0 0 0 0 0 0 0 0 0 0 0 0 0 0 0 0 0 0 0 0 0 0 0 0 0 0 0 0 0 0
0 0 0 0 0 0 0 0 0 0 0 0 0 0 0 0 0 0 0 0 0 0 0 0 0 0 0 0 0 0 0 0 0 0 0 0 0 0
0 0 0 0 0 0 0 0 0 0 0 0 0 0 0 0 0 0 0 0 0 0 0 0 0 0 0 0 0 0 0 0 0 0 0 0 0 0
0 0 0 0 0 0 0 0 0 0 0 0 0 0 0 0 0 0 0 0 0 0 0 0 0 0 0 0 0 0 0 0 0 0 0 0 0 0
Height
5690 5687 5683 5679 5675 5671 5667 5663 5661 5658 5655 5650 5645 5640 5636 5631 5627 5623 5619 5614 5610 5606 5602 5598 5594 5590 5586 5583 5580 5577 5574 5572 5570 5568 5566 5565 5565 5565
5680 5676 5672 5667 5663 5659 5655 5651 5647 5644 5641 5638 5632 5627 5622 5617 5612 5608 5603 5598 5593 5588 5584 5579 5574 5570 5566 5561 5558 5554 5551 5548 5546 5544 5542 5541 5540 5540
5669 5664 5660 5656 5651 5647 5643 5638 5634 5629 5627 5624 5618 5612 5607 5602 5597 5591 5586 5581 5575 5570 5564 5558 5553 5547 5542 5537 5533 5529 5526 5523 5520 5518 5515 5514 5513 5514
5657 5653 5648 5644 5639 5634 5630 5625 5620 5615 5611 5609 5604 5597 5591 5585 5579 5574 5568 5561 5555 5549 5542 5536 5529 5523 5517 5512 5507 5502 5498 5495 5492 5490 5488 5487 5486 5485
5645 5641 5636 5631 5627 5622 5617 5612 5606 5601 5596 5591 5587 5581 5574 5567 5560 5555 5548 5541 5534 5526 5519 5512 5505 5497 5490 5484 5478 5473 5469 5466 5463 5460 5457 5456 5456 5456
5634 5629 5624 5619 5614 5608 5603 5597 5592 5586 5580 5574 5569 5563 5556 5548 5540 5533 5528 5520 5512 5502 5494 5486 5479 5471 5463 5456 5450 5444 5440 5436 5433 5431 5429 5428 5428 5429
5621 5616 5611 5605 5600 5594 5588 5582 5576 5570 5563 5556 5551 5545 5537 5528 5520 5511 5504 5497 5490 5478 5470 5462 5453 5446 5438 5430 5423 5418 5413 5410 5408 5406 5405 5404 5404 5405
5609 5604 5598 5592 5586 5580 5573 5567 5560 5552 5545 5538 5532 5524 5516 5507 5497 5489 5480 5473 5468 5459 5446 5441 5430 5423 5415 5408 5402 5396 5392 5389 5387 5385 5384 5384 5384 5385
5596 5590 5585 5578 5571 5565 5558 5551 5543 5534 5526 5518 5511 5503 5494 5486 5476 5468 5458 5450 5443 5434 5423 5419 5411 5403 5396 5390 5384 5380 5376 5373 5371 5370 5369 5369 5369 5370
5582 5576 5570 5563 5555 5548 5542 5535 5527 5518 5508 5499 5490 5482 5472 5463 5453 5444 5436 5429 5423 5414 5402 5398 5393 5387 5381 5375 5369 5365 5362 5359 5358 5357 5357 5357 5357 5357
5569 5562 5554 5547 5540 5531 5524 5517 5509 5500 5489 5479 5470 5461 5452 5442 5432 5423 5416 5408 5404 5398 5387 5380 5377 5372 5368 5362 5357 5354 5351 5349 5348 5347 5347 5347 5347 5348
5555 5547 5539 5530 5522 5513 5504 5496 5488 5480 5470 5461 5452 5442 5432 5423 5414 5404 5397 5390 5385 5381 5374 5368 5363 5358 5357 5353 5348 5345 5343 5341 5340 5339 5339 5339 5339 5340
5539 5532 5523 5513 5504 5495 5485 5475 5466 5458 5450 5441 5433 5424 5415 5406 5398 5390 5382 5375 5370 5366 5361 5356 5352 5348 5344 5344 5341 5337 5335 5334 5333 5333 5332 5333 5333 5334
5522 5514 5505 5496 5486 5476 5466 5456 5446 5437 5428 5421 5413 5405 5397 5390 5383 5376 5369 5363 5358 5354 5349 5345 5342 5339 5336 5335 5333 5331 5329 5328 5328 5327 5327 5327 5328 5329
5504 5495 5486 5477 5467 5457 5447 5436 5426 5417 5409 5402 5395 5388 5381 5375 5369 5363 5357 5352 5348 5343 5339 5336 5333 5331 5329 5327 5326 5325 5324 5323 5323 5323 5323 5323 5324 5325
5484 5476 5467 5457 5447 5437 5428 5418 5408 5399 5391 5385 5379 5373 5366 5361 5356 5351 5346 5342 5339 5335 5331 5328 5326 5324 5322 5321 5320 5320 5319 5319 5319 5319 5319 5319 5320 5321
5464 5456 5447 5437 5428 5418 5409 5400 5391 5383 5375 5369 5363 5358 5353 5348 5344 5339 5336 5333 5330 5327 5324 5321 5319 5317 5316 5316 5315 5315 5315 5315 5315 5315 5316 5316 5317 5319
5443 5435 5426 5417 5407 5399 5390 5382 5374 5367 5361 5355 5350 5345 5340 5337 5333 5329 5326 5324 5322 5319 5317 5315 5313 5312 5312 5311 5311 5311 5311 5311 5312 5312 5313 5314 5315 5316
5424 5415 5406 5397 5388 5380 5372 5365 5358 5352 5346 5341 5336 5332 5329 5326 5323 5320 5318 5316 5314 5312 5310 5309 5308 5308 5307 5307 5307 5307 5308 5308 5309 5310 5310 5311 5313 5314
5405 5396 5387 5379 5371 5363 5356 5350 5344 5338 5333 5328 5325 5321 5318 5315 5313 5312 5310 5308 5307 5306 5304 5303 5303 5303 5303 5304 5304 5304 5305 5306 5306 5307 5308 5309 5310 5312
5388 5379 5370 5362 5354 5347 5341 5335 5330 5325 5321 5317 5313 5311 5308 5306 5305 5304 5302 5301 5301 5300 5299 5299 5299 5299 5299 5300 5300 5301 5302 5303 5304 5305 5306 5307 5308 5310
5372 5363 5355 5347 5339 5333 5327 5322 5317 5313 5309 5306 5304 5301 5300 5298 5297 5296 5296 5295 5294 5294 5294 5294 5294 5295 5296 5297 5297 5298 5299 5301 5302 5303 5304 5305 5307 5308
5356 5348 5340 5333 5326 5320 5314 5310 5306 5302 5299 5297 5295 5293 5292 5291 5290 5290 5289 5289 5289 5289 5289 5290 5291 5291 5293 5294 5295 5296 5297 5298 5300 5301 5302 5304 5305 5306
Wind_Speed
46 46 47 47 47 48 48 48 48 47 46 47 48 49 50 51 53 53 55 56 57 58 60 61 63 64 65 66 67 68 69 70 71 72 72 72 72 72
47 47 47 47 48 48 48 49 49 49 48 48 50 51 52 53 55 56 57 59 60 62 63 65 67 68 70 71 72 73 74 75 76 76 77 77 77 77
47 48 48 48 48 49 49 50 51 51 51 51 53 54 55 57 58 60 61 62 64 66 68 69 71 73 74 76 77 78 79 79 80 80 80 80 81 81
48 48 48 49 50 50 51 51 52 54 55 55 56 57 59 61 62 63 64 66 68 70 72 74 76 77 79 80 81 82 82 83 83 83 83 83 82 82
48 49 50 50 51 52 53 54 55 57 58 58 59 60 62 64 65 67 69 71 73 75 77 78 79 80 81 82 83 83 83 82 82 81 80 79 78 77
49 50 51 52 53 54 55 57 58 59 60 61 62 63 65 67 70 72 73 74 76 77 79 79 80 80 80 80 80 79 78 76 75 74 73 72 72 71
51 52 53 54 55 57 58 59 60 62 63 65 66 67 69 71 74 75 76 76 76 77 77 77 78 76 75 74 73 71 69 67 65 64 63 62 61 60
52 54 55 56 57 59 60 62 64 65 67 68 69 71 73 75 76 76 77 76 75 74 75 72 72 70 68 65 62 59 57 55 53 51 50 50 50 50
54 55 56 58 60 62 63 65 66 67 70 72 73 74 75 75 76 76 76 75 73 71 70 67 64 62 59 56 54 51 49 46 43 41 41 41 41 41
56 57 59 61 63 65 66 67 68 70 72 74 75 75 75 76 76 75 74 72 68 66 65 60 56 53 51 49 46 43 40 38 36 35 34 34 34 34
58 60 62 64 66 68 69 70 71 72 74 75 76 76 75 75 73 72 70 67 63 58 56 54 49 46 42 39 37 35 33 32 31 29 28 28 28 27
60 63 65 67 69 70 72 74 75 75 75 75 75 74 73 70 68 67 65 62 58 52 48 47 44 41 36 32 32 31 30 28 26 25 24 23 23 23
63 66 68 70 71 73 75 76 77 76 75 74 72 70 67 65 63 60 58 55 51 46 44 42 39 36 33 28 28 28 26 24 22 21 20 20 19 19
67 69 71 72 73 74 75 76 76 75 73 71 68 65 62 59 56 54 52 49 45 42 40 38 35 32 29 26 24 23 21 19 19 18 17 16 16 16
70 72 73 74 74 75 75 74 73 72 70 67 63 60 57 54 51 49 46 43 40 38 36 34 30 28 25 23 20 19 17 17 17 16 15 14 14 13
73 74 74 74 74 74 73 72 70 68 65 61 58 55 53 50 47 44 41 38 35 33 32 29 27 24 21 19 17 16 15 15 15 14 13 12 11 11
75 75 74 74 73 72 70 68 66 62 59 56 54 51 48 45 42 39 36 34 31 29 28 26 24 21 19 17 15 14 13 13 12 11 11 10 10 10
75 75 74 72 70 69 67 63 60 57 54 52 49 46 43 40 37 35 32 30 27 26 24 23 21 18 16 15 14 13 12 11 10 10 10 9 9 9
74 73 71 69 67 65 61 58 55 52 50 47 44 42 39 36 33 31 29 26 24 23 22 20 18 15 14 13 13 12 10 10 10 9 9 9 9 9
72 70 67 65 63 60 56 54 51 49 46 43 40 37 35 32 29 27 25 23 22 21 19 17 15 14 13 12 12 11 10 9 9 9 9 9 9 9
67 65 63 61 58 55 53 51 48 45 42 39 36 33 31 28 26 24 22 21 20 19 17 15 13 12 12 11 10 10 9 8 8 8 8 8 8 8
63 61 59 57 54 51 49 47 44 40 37 34 32 29 27 24 22 21 20 19 18 16 15 13 12 11 10 10 9 9 9 8 8 8 8 7 7 7
59 57 54 51 49 47 45 41 38 35 32 30 27 25 23 21 20 19 18 17 16 15 13 12 11 10 10 9 9 9 8 8 7 7 7 7 7 6
Wind_Direction
297 298 298 298 298 298 298 297 297 296 295 295 294 293 293 292 292 291 290 289 288 287 286 285 284 284 283 282 281 280 279 278 277 275 274 273 272 270
297 298 299 298 298 298 298 298 298 297 296 296 295 295 294 293 292 292 291 290 289 288 287 286 285 284 284 283 281 280 279 278 277 276 275 273 271 270
298 298 299 299 299 299 299 299 298 298 298 297 297 296 295 295 294 293 292 291 291 290 289 288 288 287 285 284 283 282 280 279 278 276 275 273 272 271
298 299 299 300 300 300 300 299 299 299 299 298 297 297 296 296 295 294 294 294 293 292 291 290 289 288 287 285 284 283 281 280 278 277 275 274 272 271
299 300 300 300 300 300 300 300 300 300 300 299 299 298 298 297 297 296 295 295 294 293 293 291 290 289 288 287 286 284 282 281 279 278 276 274 271 269
300 300 301 301 301 301 301 301 301 301 301 301 300 300 300 299 298 297 297 296 296 295 294 293 292 291 290 289 287 286 284 282 280 277 275 273 270 268
300 300 301 301 302 302 302 302 302 302 302 301 301 301 301 300 299 299 298 297 297 296 295 295 294 293 292 291 289 288 286 283 280 278 275 273 270 268
300 300 301 302 302 302 303 303 303 303 303 302 302 302 302 301 300 300 299 299 298 298 297 296 295 294 293 292 291 289 287 284 281 278 275 273 270 268
300 301 302 302 302 303 303 303 304 304 304 303 303 303 302 301 301 301 301 301 301 300 298 298 296 296 294 293 292 291 288 285 282 280 277 274 272 269
301 302 302 303 303 303 303 304 304 304 304 304 304 304 303 303 302 302 302 302 302 301 300 299 298 297 296 295 293 291 288 286 283 281 278 275 272 269
302 302 303 303 303 303 304 305 305 304 304 304 304 304 304 303 303 303 303 303 303 302 300 300 300 299 298 295 292 290 288 286 284 281 278 274 271 267
302 303 303 304 304 304 305 305 305 304 304 304 304 304 304 303 303 303 303 303 303 302 300 300 301 300 297 294 292 290 289 286 284 280 277 273 269 266
303 304 304 304 305 305 305 305 304 304 304 304 304 304 304 303 303 303 303 303 303 302 301 301 301 299 297 293 290 289 288 285 282 280 276 272 268 264
304 304 305 305 305 305 305 304 304 305 305 305 305 304 304 304 304 304 304 303 302 302 301 301 300 298 296 294 291 288 286 283 281 279 275 271 266 262
305 305 305 305 305 305 305 305 305 305 305 305 304 304 304 304 303 303 303 302 302 301 301 301 300 298 295 293 289 286 282 281 280 277 272 268 264 258
305 306 306 305 305 305 305 305 305 304 304 304 304 304 303 302 302 302 302 302 301 300 299 299 299 298 294 291 288 284 280 279 277 274 269 265 259 252
306 306 306 305 305 305 305 305 304 304 304 303 303 303 302 302 301 301 301 301 299 298 297 297 298 295 291 289 286 282 279 277 273 267 263 258 252 247
306 307 306 306 306 305 305 305 304 304 303 303 303 302 301 301 300 299 299 298 297 297 296 295 294 290 287 286 283 280 276 270 265 261 256 251 247 242
307 307 307 306 306 306 306 305 304 303 303 303 302 301 300 300 298 298 297 295 294 295 295 292 288 284 283 281 278 276 271 262 258 256 252 248 244 240
307 307 307 307 307 306 306 305 304 304 303 302 300 300 299 298 296 295 294 292 292 293 291 287 281 279 278 275 271 269 264 256 255 252 247 243 238 235
308 308 308 307 307 306 305 305 304 303 302 300 299 298 297 296 294 293 291 289 290 290 287 281 276 275 273 268 263 260 257 251 249 245 240 236 233 232
308 308 308 307 307 306 305 304 303 302 301 299 298 297 295 293 291 290 289 287 287 285 281 275 270 269 265 260 255 251 250 245 241 237 234 230 228 228
309 309 309 308 308 307 306 305 304 302 300 299 297 294 292 290 288 286 284 284 283 280 274 268 264 260 256 253 247 244 242 239 233 229 226 222 224 225